Dewpoint
56 55 54 54 54 55 49 47 36 45 52 43 43 41 42 43 43 44 42 43 41 40 41 36 39 39 40 42 43 39 40 35 32 33 31 33 29 27 25 23 24 24 21 21
56 55 54 54 54 54 46 42 42 48 46 39 39 41 41 42 42 42 42 41 42 40 39 38 40 39 42 43 42 39 39 35 32 31 31 33 33 32 29 29 29 26 21 22
56 56 55 54 54 54 47 43 37 42 42 41 39 39 39 40 42 41 41 40 40 40 39 40 39 38 42 42 41 45 41 33 29 27 27 31 32 32 32 30 26 25 26 26
56 56 55 53 53 53 48 40 36 40 35 35 35 36 37 38 39 41 40 38 38 38 37 37 36 38 39 38 41 38 36 28 29 28 29 27 27 28 29 31 30 26 22 24
56 55 55 54 53 52 44 40 36 38 36 35 33 36 34 35 36 37 39 39 38 37 35 37 36 37 37 36 36 35 34 29 26 23 24 23 21 22 23 25 27 29 29 27
56 55 55 54 52 50 43 43 42 35 36 33 33 34 34 35 36 37 37 37 37 35 33 31 31 33 35 37 34 33 31 26 24 20 25 25 24 25 25 25 24 23 23 24
55 55 55 54 53 50 46 44 43 36 32 32 34 35 35 33 34 33 32 34 34 34 32 31 29 27 26 27 28 31 31 28 28 24 26 22 26 29 28 27 29 28 28 28
54 55 55 55 53 52 46 47 43 38 32 33 33 34 32 31 31 31 33 32 32 34 30 29 27 28 29 31 35 34 29 29 26 26 26 27 29 30 30 29 29 31 31 33
54 54 54 55 54 52 47 46 48 43 35 33 32 30 30 29 29 29 30 32 35 35 31 32 30 30 30 28 32 35 32 30 27 24 22 24 29 31 32 31 26 35 35 35
53 53 53 54 54 52 50 48 49 46 40 39 39 35 32 33 32 30 30 30 31 34 32 32 29 31 28 28 28 30 30 30 27 28 26 28 32 32 33 26 26 36 38 37
52 52 53 54 54 52 51 50 49 47 44 43 41 40 35 35 36 34 34 35 35 33 31 32 31 30 30 28 30 32 31 28 29 29 26 24 34 33 31 32 35 36 36 38
51 52 53 53 54 53 53 49 49 49 47 45 47 47 46 40 41 37 35 38 35 35 35 34 32 30 29 29 28 30 27 31 32 32 30 34 34 34 34 35 34 35 34 35
50 51 52 52 53 53 53 50 49 48 44 44 45 45 46 46 43 42 38 38 38 38 43 39 37 34 32 30 30 30 33 35 32 32 33 34 35 34 34 34 34 36 36 36
49 50 51 52 53 54 52 50 50 49 47 42 45 45 45 46 47 44 43 40 41 42 43 40 38 37 38 36 35 34 34 35 34 33 34 34 34 34 35 35 35 35 34 34
49 50 51 52 52 53 53 52 51 52 47 42 44 46 44 44 46 46 44 42 42 41 39 37 35 40 39 39 36 33 36 34 33 32 35 34 34 35 36 35 35 35 33 33
48 50 51 51 52 53 51 46 50 52 51 44 38 45 42 43 44 45 45 44 43 43 38 36 40 41 39 34 33 36 36 37 36 35 35 34 35 36 35 35 34 34 34 34
47 49 50 51 52 49 47 45 47 50 51 44 37 39 41 41 44 44 44 44 44 42 41 39 40 39 40 38 33 34 36 34 34 36 36 35 35 34 33 34 36 37 36 36
47 48 50 51 49 48 45 46 48 51 47 45 35 36 38 41 41 40 43 42 42 42 40 41 39 40 40 35 36 35 36 35 35 36 36 35 34 33 34 35 35 34 34 33
48 50 50 47 45 43 44 46 48 48 45 38 37 34 34 40 40 41 40 41 37 42 39 39 39 37 34 35 35 35 35 34 34 32 31 29 32 34 35 33 33 32 31 29
50 47 44 38 42 44 44 42 41 39 40 39 37 39 34 38 39 37 36 36 34 32 35 38 35 34 36 36 36 36 35 35 32 29 27 32 33 32 35 33 33 33 31 25
45 40 37 42 43 41 38 35 35 37 34 37 37 36 34 37 35 34 35 33 33 29 30 30 30 29 31 32 33 30 29 31 31 31 30 31 33 32 34 33 32 26 16 14
43 40 41 41 36 34 30 31 32 33 31 35 34 35 37 36 37 33 35 31 31 24 32 29 24 27 30 28 26 27 29 30 31 29 30 29 31 32 32 28 17 16 13 12
42 37 34 33 33 28 26 23 27 29 32 33 34 33 35 36 37 34 33 28 27 28 27 24 24 29 29 26 26 26 28 29 26 22 20 23 29 29 25 18 15 13 10 11
36 33 29 26 24 25 22 23 26 30 30 31 33 32 32 32 33 31 26 31 27 23 22 21 26 27 28 27 25 24 24 27 27 22 18 13 13 11 11 12 10 11 11 13
34 33 24 24 25 26 22 22 25 27 30 32 29 30 30 30 29 30 27 25 23 22 21 25 25 23 22 21 22 24 25 27 28 23 18 13 12 11 11 13 13 13 14 14
33 32 28 30 27 29 26 25 25 28 31 27 27 28 27 24 28 27 25 23 19 23 25 25 22 26 24 22 21 22 25 26 27 25 19 15 13 11 12 13 15 15 14 14
32 30 29 25 28 29 28 29 29 32 27 22 27 21 18 23 25 22 23 22 25 24 25 24 25 26 26 23 20 22 25 26 26 26 21 15 14 14 15 15 15 16 15 14
Lifted_Index
6 7 8 8 7 7 5 3 3 2 1 0 0 0 1 1 2 2 1 2 2 2 1 1 0 -0 0 1 2 2 2 3 3 3 4 4 4 4 4 3 3 3 3 3
5 6 7 7 8 7 5 3 3 3 2 1 0 0 1 1 2 2 2 2 2 1 1 0 -0 -0 0 1 2 2 2 2 3 3 3 3 4 4 4 4 4 3 3 3
5 4 5 7 8 7 5 3 3 3 2 1 1 1 1 1 2 2 2 2 1 1 1 0 -0 0 1 1 2 2 2 2 2 3 3 3 4 4 5 5 4 4 3 4
4 4 4 6 7 7 5 4 3 3 2 2 1 1 1 1 2 2 2 2 2 1 1 1 1 1 1 2 2 3 3 3 3 3 3 4 4 4 5 5 5 4 4 4
5 4 4 5 7 7 6 5 4 4 3 3 2 2 2 2 2 2 2 2 2 2 2 2 2 2 2 2 3 4 4 3 3 4 4 4 4 4 4 4 4 4 4 4
6 5 4 4 7 7 6 6 5 5 5 4 3 3 3 3 3 2 2 2 2 2 2 3 3 3 3 3 4 4 4 4 4 4 4 4 3 3 4 4 4 4 5 5
6 5 4 4 6 7 7 6 5 5 5 5 5 5 4 4 4 3 3 3 4 4 4 4 4 4 4 5 5 5 5 5 4 4 3 3 3 3 4 4 5 5 6 6
6 6 5 4 5 6 7 6 5 5 5 5 6 6 5 5 5 5 4 4 5 5 5 5 4 4 4 4 5 5 4 4 3 3 2 2 3 4 5 5 6 6 7 7
6 5 5 4 4 4 5 5 4 5 5 6 6 6 6 5 5 5 4 4 4 4 4 3 3 2 2 3 3 4 4 4 3 3 2 3 4 6 6 6 6 7 7 7
6 5 5 5 4 3 3 3 3 4 4 6 6 6 6 5 4 4 3 2 2 2 2 2 2 2 2 2 3 3 4 4 4 4 3 3 5 6 6 6 6 7 7 7
7 6 5 5 4 4 3 3 3 3 3 5 5 6 5 4 3 3 3 2 2 2 2 2 2 2 3 3 3 4 4 4 5 5 4 4 5 6 7 7 7 7 8 8
7 7 6 5 4 4 3 3 3 3 3 4 4 5 4 4 4 4 3 3 3 3 3 3 3 3 4 4 4 5 5 5 6 6 5 5 6 7 7 7 8 8 8 8
8 8 7 6 5 4 4 4 4 4 4 4 4 4 4 4 4 4 4 4 4 4 4 4 4 4 5 5 5 6 6 6 6 6 6 6 6 7 7 7 8 8 8 8
9 9 8 7 6 5 4 4 4 4 4 4 4 5 5 5 5 5 4 4 4 4 4 5 5 6 6 6 6 6 7 7 7 6 6 7 7 7 8 8 8 8 9 9
9 9 9 8 7 6 6 6 6 5 5 5 5 5 6 6 6 5 5 4 4 5 5 5 6 7 7 7 6 7 8 8 7 7 7 7 8 8 8 8 9 9 9 9
9 9 9 9 8 7 7 7 7 6 6 6 7 7 7 7 6 6 5 5 5 5 6 6 7 7 7 7 6 7 8 8 7 7 8 8 9 9 9 9 9 9 10 10
8 9 9 9 8 8 7 7 7 7 7 7 7 7 8 7 7 7 7 6 6 6 6 7 7 8 8 7 6 7 8 8 8 8 9 9 9 9 9 10 10 10 10 10
8 8 8 8 8 8 8 7 8 8 8 8 7 7 7 8 8 7 7 7 7 7 7 7 8 8 7 6 7 8 8 8 8 9 9 9 9 10 10 10 11 11 11 11
8 8 8 8 8 8 8 8 8 8 8 8 8 7 7 8 8 7 7 7 7 7 7 8 8 7 7 7 7 8 8 8 8 9 9 9 10 10 11 11 11 11 11 11
7 7 7 8 8 8 8 8 8 9 9 9 8 8 7 7 7 7 7 7 7 7 7 7 7 7 7 7 8 8 9 9 9 9 10 10 10 11 11 12 12 12 11 12
7 7 7 8 8 8 9 9 9 9 9 9 9 8 8 7 7 7 7 7 7 7 7 7 7 6 7 8 8 9 9 9 10 10 10 10 11 11 11 12 12 11 12 12
7 7 7 8 8 8 9 9 9 9 9 9 9 8 8 8 7 7 7 8 8 8 8 7 7 7 8 9 9 9 10 10 10 10 10 10 11 11 11 11 11 11 12 13
7 7 7 7 7 8 8 8 8 8 9 9 9 8 8 8 8 8 8 8 8 8 8 7 7 8 9 9 10 10 10 10 10 10 10 10 11 11 11 11 12 12 13 13
7 7 7 7 8 8 8 8 8 8 9 9 9 9 9 8 8 8 8 8 8 8 7 6 7 8 9 10 10 10 10 10 10 10 10 10 11 11 11 12 13 13 13 13
7 7 7 8 9 9 9 9 9 9 9 9 9 9 9 9 9 9 9 8 7 7 7 7 8 9 10 11 11 10 10 9 9 9 10 11 12 12 12 12 13 13 12 12
8 8 9 9 9 9 9 9 8 9 9 9 10 10 9 9 9 9 8 8 7 7 8 9 9 10 10 10 10 10 9 9 9 9 10 11 12 12 11 11 11 12 12 12
8 9 10 10 10 9 9 9 8 9 9 10 10 9 9 9 9 9 8 7 7 7 8 9 10 10 10 10 9 9 9 9 9 9 10 12 12 12 11 10 10 11 12 12